www.pogodaiklimat.ru

Погода и климат >> Архив погоды >> Иран >> Тегеран


АРХИВ ПОГОДЫ в Тегеране

Время (UTC), дата Ветер
(напр.,м/с)
 
Видим.   Явления Облачность Т
(С)
Тd
(С)
f
(%)
Тe
(С)
Тes
(С)
Комфортность P
(гПа)
Po
(гПа)
Тmin
(С)
Tmax
(С)
R
(мм)
R24
(мм)
S
(см)
18 15.03 З 3 10 км {ливн. осадки} 5/1 1050 м
[Sc Ac trans]
+7.4 +2.3 70 +5 +5 прохладно 1011.5 878.2 0.6
21 15.03 штиль 0 10 км 1/0
[Ac trans]
+6.3 +2.4 76 +6 +6 по сезону 1011.2 878.2
00 16.03 ЮЗ 2 10 км ясно +5.0 +2.0 81 +2 +2 прохладно 1013.5 877.9
03 16.03 З 9 10 км 3/3 1050 м
[Sc]
+8.9 -4.0 40 +5 +5 прохладно 1013.1 878.8 +4.2
06 16.03 З 10 10 км 1/1 1200 м
[Cu hum]
+11.7 -5.3 30 +8 +9 по сезону 1013.4 879.6
09 16.03 З 11 10 км 6/1 1200 м
[Cu hum Cs]
+14.5 -3.8 28 +12 +12 по сезону 1012.3 879.0
12 16.03 СЗ 7 12 км 3/1 1200 м
[Cu hum Ci fib]
+16.9 -5.6 21 +16 +17 тепло 1010.4 877.6
15 16.03 З 3 10 км 1/0
[Ac trans]
+15.2 -4.2 26 +15 +15 тепло 1009.4 877.2 +17.4
18 16.03 штиль 0 12 км 1/0
[Ac trans]
+12.2 -2.8 35 +12 +12 тепло 1010.0 877.7
21 16.03 С 2 10 км ясно +10.6 -2.1 41 +10 +10 по сезону 1008.9 877.0
00 17.03 СЗ 2 10 км ясно +11.0 -3.1 37 +10 +10 тепло 1007.9 876.7
03 17.03 СВ 2 10 км 4/0
[Ac trans Ci fib]
+10.4 -2.0 42 +10 +10 по сезону 1007.7 876.1 +9.4
06 17.03 В 5 10 км 10/0
[As trans]
+14.6 -3.7 28 +13 +15 тепло 1005.6 874.5
09 17.03 В 2 8000 м мгла 10/3 1050 м
[Cb calv As op]
+11.6 +0.1 45 +11 +13 по сезону 1003.6 871.9
12 17.03 Ю 6 6000 м слаб. дождь 10/5 900 м
[Cb calv As op]
+7.2 +4.0 80 +3 +3 очень
холодно
1004.2 876.3 1
15 17.03 З 4 10 км {дождь} 9/3 900 м
[Sc diur, vesp Ac trans Cs]
+6.4 +3.4 81 +3 +3 очень
холодно
1002.5 869.9 +14.8
18 17.03 З 6 4000 м дождь {ливн. осадки} 10/4 900 м
[Cb calv As op]
+4.7 +2.6 86 -1 -1 очень
холодно
1002.3 870.2 9
21 17.03 СЗ 10 15 км в посл. час дождь 9/4 900 м
[Cb calv Ac As]
+6.3 +0.2 65 +1 +1 холодно 1001.9 869.5
00 18.03 З 8 15 км {дождь} 9/5 750 м
[Cb calv Ac As]
+5.6 +1.3 74 0 0 холодно 1003.1 869.5 3
03 18.03 З 10 15 км 8/4 900 м
[Cb calv Ac As]
+6.7 +0.4 64 +1 +1 очень
холодно
1003.7 870.0 +3.6
06 18.03 З 8 15 км 9/4 1050 м
[Cb calv Ac As]
+7.1 +1.2 66 +2 +3 очень
холодно
1007.2 872.8
09 18.03 З 8 15 км 9/3 900 м
[Cu hum Ac As Cs]
+12.4 -4.7 30 +10 +11 по сезону 1007.3 874.2
12 18.03 СЗ 7 15 км 6/1 900 м
[Cu hum Cs]
+14.4 -6.5 23 +13 +14 по сезону 1007.5 874.6
15 18.03 З 9 15 км 1/1 1050 м
[Sc diur, vesp]
+11.2 -2.6 38 +8 +8 прохладно 1009.9 876.3 +14.6
18 18.03 З 5 12 км ясно +8.1 -0.4 55 +5 +5 холодно 1012.4 878.0
21 18.03 З 3 12 км ясно +4.4 -0.4 71 +1 +1 очень
холодно
1013.1 878.8
00 19.03 З 3 12 км ясно +3.2 -0.8 75 -1 -1 очень
холодно
1013.0 879.0
03 19.03 З 2 10 км ясно +2.0 -1.3 79 -1 -1 очень
холодно
1015.2 880.0 +1.8
06 19.03 ЮЗ 5 10 км 1/1 1050 м
[Cu hum]
+8.9 -3.3 42 +6 +10 прохладно 1015.5 881.0
09 19.03 ЮЗ 4 12 км 4/1 1050 м
[Cu hum Ci fib]
+12.3 -4.8 30 +11 +19 по сезону 1015.3 880.7
12 19.03 З 4 12 км 3/1 1050 м
[Cu hum Ci fib]
+14.5 -6.4 23 +14 +17 по сезону 1013.1 879.0
15 19.03 З 4 12 км 5/1 1050 м
[Sc Ac As]
+12.5 -5.5 28 +11 +11 по сезону 1014.3 879.4 +14.6
18 19.03 штиль 0 10 км 5/3 1050 м
[Sc diur, vesp Ac trans]
+11.0 -4.2 34 +11 +11 по сезону 1013.9 880.2
21 19.03 ЮЗ 3 10 км 8/3 1050 м
[Sc Ac As]
+9.0 -1.1 49 +7 +7 по сезону 1013.1 879.9
00 20.03 В 2 10 км {дождь} 9/3 1050 м
[Sc Ac As]
+9.4 -1.3 47 +8 +8 по сезону 1012.3 879.7 0.0
03 20.03 ЮВ 2 10 км 9/4 1050 м
[Sc Ac As]
+8.8 -1.6 48 +8 +8 по сезону 1013.9 880.6 +7.4
06 20.03 З 3 10 км 5/1 1050 м
[Cu hum Ac As]
+9.0 -0.3 52 +7 +12 прохладно 1015.6 881.8
09 20.03 З 5 10 км 5/5 900 м
[Sc diur, vesp]
+10.8 -0.6 45 +8 +12 прохладно 1014.5 880.8
12 20.03 З 4 12 км 5/4 900 м
[Cu med, cong Ac cuf Ci fib]
+11.9 -4.7 31 +10 +13 прохладно 1013.1 879.8
15 20.03 СЗ 3 12 км 3/3 1200 м
[Sc diur, vesp]
+10.3 -13.0 18 +9 +9 прохладно 1013.5 879.6 +12.4
18 20.03 З 2 10 км 4/1 1050 м
[Sc Ac trans]
+7.1 -5.3 41 +6 +6 прохладно 1015.3 880.6
21 20.03 СЗ 3 10 км 5/3 1050 м
[Sc Ac trans Ci fib]
+4.8 -3.5 55 +2 +2 холодно 1014.9 880.2
00 21.03 З 3 10 км 4/1 1050 м
[Sc Ac trans Ci fib]
+5.4 -6.2 43 +3 +3 прохладно 1014.5 880.1
03 21.03 штиль 0 12 км 8/4 900 м
[Cb calv Ac As]
+5.3 -4.3 50 +5 +5 прохладно 1015.7 880.8 +4.5
06 21.03 Ю 3 10 км 10/3 900 м
[Sc diur, vesp Ac As Cs]
+8.0 -3.8 43 +6 +9 холодно 1017.4 882.2
09 21.03 З 3 15 км 6/5 1050 м
[Cu med, cong Ac trans Ci sp]
+10.2 -4.6 35 +9 +14 прохладно 1016.7 881.6
12 21.03 З 9 14 км 9/6 1050 м
[Cb calv Ac As]
+10.8 -4.4 34 +7 +8 очень
холодно
1014.9 880.3
15 21.03 З 5 10 км 5/3 1200 м
[Cu med, cong Ac As Ci sp]
+9.6 -3.7 39 +7 +7 холодно 1015.4 880.4 +12.2
18 21.03 З 4 12 км 6/1 1200 м
[Sc diur, vesp Ac As]
+8.0 -3.8 43 +5 +5 холодно 1016.3 881.5
21 21.03 СЗ 5 12 км 8/3 1200 м
[Sc diur, vesp Ac As Cs]
+4.2 -2.2 63 -0 -0 очень
холодно
1017.1 881.8
00 22.03 З 3 12 км 3/0
[Ci fib]
+2.2 -1.9 74 -2 -2 очень
холодно
1017.4 881.8
03 22.03 З 2 10 км ясно +1.3 -2.6 75 -2 -2 очень
холодно
1018.9 882.6 +1.0
06 22.03 ЮЗ 3 12 км 1/1 1050 м
[Cu hum]
+7.6 -3.6 45 +5 +12 холодно 1019.0 883.7
09 22.03 ЮЗ 2 15 км 3/3 1050 м
[Cu hum]
+12.0 -5.9 28 +12 +22 по сезону 1018.1 883.0
12 22.03 Ю 3 15 км 3/3 1050 м
[Cu hum]
+13.4 -6.7 24 +13 +16 по сезону 1016.2 881.2
15 22.03 Ю 2 12 км 1/1 1050 м
[Sc diur, vesp Ci fib]
+12.8 -10.9 18 +13 +13 по сезону 1016.4 881.0 +14.5

 

Местоположение метеостанции Тегеран (Иран): широта 35.68 долгота 51.32 высота над уровнем моря 1191 м.

В архиве по умолчанию представлена погода в Тегеране за последнюю неделю. Архивные данные за месяц целиком и за предыдущие месяцы, начиная с января 2011 года, Вы можете получить, выбрав интересующий диапазон дат из раскрывающегося списка и нажав кнопку "Ввод!".


*Определитесь, кто Вы:
робот инопланетянин человек

Внимание! Время в таблицах - всемирное. Для получения местного времени необходимо прибавить поправку, которая равна 3.5 ч.

Смотрите также архив погоды в соседних городах и на ближайших метеорологических станциях:

Погода в Ноушехре (Иран) (109 км)
Погода в Казвине (Иран) (135 км)
Погода в Рамсаре (Иран) (148 км)
Погода в Эскандар Кола (Иран) (160 км)
Погода в Бабольсере (Иран) (166 км)
Погода в Семнане (Иран) (187 км)
Погода в Кашане (Иран) (189 км)
Погода в Араке (Иран) (226 км)
Погода в Реште (Иран) (227 км)
Погода в Энзели (Иран) (259 км)

Пояснения к столбцам:

Ветер - указаны скорость ветра в м/с - средняя за 10 мин, порывы в срок и между сроками (в фигурных скобках) и направление, откуда дует ветер: С - северный, СВ - северо-восточный, В - восточный, ЮВ - юго-восточный, Ю - южный, ЮЗ - юго-западный, З - западный, СЗ - северо-западный.
Видимость - горизонтальная дальность видимости в метрах или километрах. При видимости от 1 до 10 км при отсутствии осадков обычно наблюдается дымка, при ухудшении видимости до 1 км и менее - туман. В сухую погоду видимость может ухудшаться дымом, пылью или мглою.
Явления - указаны атмосферные явления, наблюдавшиеся в срок или в последний час перед сроком; фигурными скобками обозначены явления, наблюдавшиеся между сроками (за 1-3 часа до срока); квадратными скобками обозначены град или гололедные отложения с указанием их диаметра в мм.
Облачность - указаны через наклонную черту общая и нижняя облачность в баллах и высота нижней границы облаков в метрах; квадратными скобками обозначены формы облаков: Ci - перистые, Cs - перисто-слоистые, Cc - перисто-кучевые, Ac - высококучевые, As - высокослоистые, Sc - слоисто-кучевые, Ns - слоисто-дождевые, Cu - кучевые, Cb - кучево-дождевые. Подробнее классификацию облаков см. в Атласе облаков (PDF).
T - Температура воздуха - температура, измеренная на высоте 2 м над землей.
Td - Температура точки росы - температура, при понижении до которой содержащийся в воздухе водяной пар достигнет насыщения.
f - Относительная влажность воздуха - влажноcть воздуха, измеренная на высоте 2 м над землей.
Te - Эффективная температура - температура, которую ощущает одетый по сезону человек в тени. Характеристика душности погоды. При расчете учитывается влияние влажности воздуха и скорости ветра на теплоощущения человека.
Tes - Эффективная температура на солнце - температура, которую ощущает человек, с поправкой на солнечный нагрев. Характеристика знойности погоды. Зависит от высоты солнца над горизонтом, облачности и скорости ветра. Ночью, в пасмурную погоду, а также при ветре 12 м/с и более поправка равна нулю.
P - Атмосферное давление - приведенное к уровню моря атмосферное давление.
Po - Атмосферное давление - измеренное на уровне метеостанции атмосферное давление.
Tmin - Минимальная температура - минимум температуры воздуха на высоте 2 м над землей.
Tmax - Максимальная температура - максимум температуры воздуха на высоте 2 м над землей.
R - Количество осадков - Количество выпавших осадков за период времени, мм. При наведении курсора мыши на число - период времени, за который выпало указанное количество осадков.
R24 - Количество осадков - Количество выпавших осадков за 24 часа, мм.
S - Снежный покров - Высота снежного покрова, см. При наведении курсора мыши на число - состояние снежного покрова и степень покрытия местности в баллах.